Time,TemperatureF,DewpointF,PressureIn,WindDirection,WindDirectionDegrees,WindSpeedMPH,WindSpeedGustMPH,Humidity,HourlyPrecipIn,Conditions,Clouds,dailyrainin,SoftwareType,DateUTC
2014-02-01 00:00:00,31.2,22.9,30.23,West,274,3.0,6.0,71,0.00,,---,0.00,VWS V14.01,2014-02-01 05:00:00,
2014-02-01 00:01:00,31.2,22.9,30.23,West,269,2.0,6.0,71,0.00,,---,0.00,VWS V14.01,2014-02-01 05:01:00,
2014-02-01 00:02:00,31.3,22.7,30.23,West,268,3.0,4.0,70,0.00,,---,0.00,VWS V14.01,2014-02-01 05:02:00,
2014-02-01 00:07:00,31.3,23.0,30.23,WNW,285,3.0,6.0,71,0.00,,---,0.00,VWS V14.01,2014-02-01 05:07:00,
2014-02-01 00:12:00,31.2,23.2,30.23,WNW,290,4.0,6.0,72,0.00,,---,0.00,VWS V14.01,2014-02-01 05:12:00,
2014-02-01 00:17:00,31.0,23.4,30.23,West,279,4.0,6.0,73,0.00,,---,0.00,VWS V14.01,2014-02-01 05:17:00,
2014-02-01 00:22:00,30.9,23.3,30.23,WNW,285,3.0,6.0,73,0.00,,---,0.00,VWS V14.01,2014-02-01 05:22:00,
2014-02-01 00:27:00,31.1,23.1,30.23,West,275,2.0,6.0,72,0.00,,---,0.00,VWS V14.01,2014-02-01 05:27:00,
2014-02-01 00:30:00,31.1,23.1,30.23,WSW,255,3.0,6.0,72,0.00,,---,0.00,VWS V14.01,2014-02-01 05:30:00,
2014-02-01 00:35:00,31.1,23.1,30.23,WNW,290,4.0,4.0,72,0.00,,---,0.00,VWS V14.01,2014-02-01 05:35:00,
2014-02-01 00:40:00,31.2,23.2,30.23,West,270,3.0,4.0,72,0.00,,---,0.00,VWS V14.01,2014-02-01 05:40:00,
2014-02-01 00:45:00,31.3,23.3,30.23,West,278,3.0,4.0,72,0.00,,---,0.00,VWS V14.01,2014-02-01 05:45:00,
2014-02-01 00:50:00,31.5,23.2,30.23,WNW,288,3.0,4.0,71,0.00,,---,0.00,VWS V14.01,2014-02-01 05:50:00,
2014-02-01 00:55:00,31.5,23.2,30.23,West,266,3.0,4.0,71,0.00,,---,0.00,VWS V14.01,2014-02-01 05:55:00,
2014-02-01 01:00:00,31.8,22.8,30.23,WNW,287,2.0,5.0,69,0.00,,---,0.00,VWS V14.01,2014-02-01 06:00:00,
2014-02-01 01:05:00,31.8,22.8,30.23,West,260,3.0,4.0,69,0.00,,---,0.00,VWS V14.01,2014-02-01 06:05:00,
2014-02-01 01:10:00,31.9,22.5,30.23,WNW,282,2.0,4.0,68,0.00,,---,0.00,VWS V14.01,2014-02-01 06:10:00,
2014-02-01 01:15:00,31.8,22.5,30.23,WNW,283,2.0,4.0,68,0.00,,---,0.00,VWS V14.01,2014-02-01 06:15:00,
2014-02-01 01:20:00,31.7,22.4,30.23,West,271,3.0,4.0,68,0.00,,---,0.00,VWS V14.01,2014-02-01 06:20:00,
2014-02-01 01:25:00,31.7,22.4,30.23,WNW,283,3.0,4.0,68,0.00,,---,0.00,VWS V14.01,2014-02-01 06:25:00,
2014-02-01 01:30:00,31.6,21.9,30.23,WNW,295,3.0,4.0,67,0.00,,---,0.00,VWS V14.01,2014-02-01 06:30:00,
2014-02-01 01:35:00,31.6,21.9,30.23,NW,312,3.0,4.0,67,0.00,,---,0.00,VWS V14.01,2014-02-01 06:35:00,
2014-02-01 01:40:00,31.5,22.2,30.24,West,267,2.0,4.0,68,0.00,,---,0.00,VWS V14.01,2014-02-01 06:40:00,
2014-02-01 01:45:00,31.5,22.2,30.24,WNW,288,2.0,4.0,68,0.00,,---,0.00,VWS V14.01,2014-02-01 06:45:00,
2014-02-01 01:50:00,31.4,22.1,30.23,WNW,297,2.0,4.0,68,0.00,,---,0.00,VWS V14.01,2014-02-01 06:50:00,
2014-02-01 01:55:00,31.4,22.4,30.24,WNW,302,2.0,4.0,69,0.00,,---,0.00,VWS V14.01,2014-02-01 06:55:00,
2014-02-01 02:00:00,31.4,22.1,30.24,WNW,289,2.0,4.0,68,0.00,,---,0.00,VWS V14.01,2014-02-01 07:00:00,
2014-02-01 02:05:00,31.5,22.2,30.24,WNW,290,3.0,3.0,68,0.00,,---,0.00,VWS V14.01,2014-02-01 07:05:00,
2014-02-01 02:10:00,31.5,21.8,30.24,WNW,302,3.0,3.0,67,0.00,,---,0.00,VWS V14.01,2014-02-01 07:10:00,
2014-02-01 02:15:00,31.5,22.2,30.24,WNW,288,3.0,3.0,68,0.00,,---,0.00,VWS V14.01,2014-02-01 07:15:00,
2014-02-01 02:19:00,31.4,22.4,30.25,WNW,293,3.0,3.0,69,0.00,,---,0.00,VWS V14.01,2014-02-01 07:19:00,
2014-02-01 02:24:00,31.4,22.8,30.25,WNW,296,2.0,3.0,70,0.00,,---,0.00,VWS V14.01,2014-02-01 07:24:00,
2014-02-01 02:29:00,31.3,22.7,30.25,WNW,297,2.0,3.0,70,0.00,,---,0.00,VWS V14.01,2014-02-01 07:29:00,
2014-02-01 02:34:00,31.3,22.7,30.25,NW,307,2.0,3.0,70,0.00,,---,0.00,VWS V14.01,2014-02-01 07:34:00,
2014-02-01 02:39:00,31.3,23.0,30.25,WNW,294,3.0,3.0,71,0.00,,---,0.00,VWS V14.01,2014-02-01 07:39:00,
2014-02-01 02:44:00,31.4,22.8,30.26,NW,306,2.0,4.0,70,0.00,,---,0.00,VWS V14.01,2014-02-01 07:44:00,
2014-02-01 02:49:00,31.3,23.0,30.25,NW,308,1.0,4.0,71,0.00,,---,0.00,VWS V14.01,2014-02-01 07:49:00,
2014-02-01 02:54:00,31.2,23.2,30.25,WNW,295,1.0,4.0,72,0.00,,---,0.00,VWS V14.01,2014-02-01 07:54:00,
2014-02-01 02:59:00,31.2,23.2,30.25,WNW,283,1.0,4.0,72,0.00,,---,0.00,VWS V14.01,2014-02-01 07:59:00,
2014-02-01 03:04:00,31.2,23.2,30.25,WNW,294,2.0,3.0,72,0.00,,---,0.00,VWS V14.01,2014-02-01 08:04:00,
2014-02-01 03:09:00,31.1,23.1,30.25,NW,309,1.0,4.0,72,0.00,,---,0.00,VWS V14.01,2014-02-01 08:09:00,
2014-02-01 03:14:00,30.9,23.3,30.25,NW,315,2.0,4.0,73,0.00,,---,0.00,VWS V14.01,2014-02-01 08:14:00,
2014-02-01 03:19:00,30.8,23.2,30.25,West,280,2.0,4.0,73,0.00,,---,0.00,VWS V14.01,2014-02-01 08:19:00,
2014-02-01 03:24:00,30.6,23.0,30.25,NW,323,2.0,4.0,73,0.00,,---,0.00,VWS V14.01,2014-02-01 08:24:00,
2014-02-01 03:29:00,30.6,23.3,30.25,NW,319,2.0,4.0,74,0.00,,---,0.00,VWS V14.01,2014-02-01 08:29:00,
2014-02-01 03:33:00,30.6,23.3,30.25,WNW,285,1.0,3.0,74,0.00,,---,0.00,VWS V14.01,2014-02-01 08:33:00,
2014-02-01 03:38:00,30.6,23.6,30.25,NW,305,2.0,3.0,75,0.00,,---,0.00,VWS V14.01,2014-02-01 08:38:00,
2014-02-01 03:43:00,30.5,23.5,30.25,NW,323,1.0,3.0,75,0.00,,---,0.00,VWS V14.01,2014-02-01 08:43:00,
2014-02-01 03:48:00,30.4,23.8,30.25,NW,306,2.0,3.0,76,0.00,,---,0.00,VWS V14.01,2014-02-01 08:48:00,
2014-02-01 03:53:00,30.3,23.7,30.26,North,5,3.0,3.0,76,0.00,,---,0.00,VWS V14.01,2014-02-01 08:53:00,
2014-02-01 03:58:00,30.4,24.1,30.25,WNW,302,2.0,4.0,77,0.00,,---,0.00,VWS V14.01,2014-02-01 08:58:00,
2014-02-01 04:03:00,30.4,23.8,30.25,WNW,288,1.0,3.0,76,0.00,,---,0.00,VWS V14.01,2014-02-01 09:03:00,
2014-02-01 04:08:00,30.5,23.9,30.25,WNW,300,1.0,4.0,76,0.00,,---,0.00,VWS V14.01,2014-02-01 09:08:00,
2014-02-01 04:13:00,30.8,23.8,30.25,NW,318,2.0,4.0,75,0.00,,---,0.00,VWS V14.01,2014-02-01 09:13:00,
2014-02-01 04:18:00,30.9,23.6,30.25,NW,311,1.0,4.0,74,0.00,,---,0.00,VWS V14.01,2014-02-01 09:18:00,
2014-02-01 04:23:00,30.9,23.6,30.25,NNW,347,0.0,4.0,74,0.00,,---,0.00,VWS V14.01,2014-02-01 09:23:00,
2014-02-01 04:28:00,31.3,23.3,30.25,NNW,336,2.0,4.0,72,0.00,,---,0.00,VWS V14.01,2014-02-01 09:28:00,
2014-02-01 04:33:00,31.9,23.2,30.25,NNW,345,1.0,3.0,70,0.00,,---,0.00,VWS V14.01,2014-02-01 09:33:00,
2014-02-01 04:38:00,32.0,23.3,30.25,NW,324,3.0,3.0,70,0.00,,---,0.00,VWS V14.01,2014-02-01 09:38:00,
2014-02-01 04:43:00,31.8,23.5,30.26,NNW,327,2.0,4.0,71,0.00,,---,0.00,VWS V14.01,2014-02-01 09:43:00,
2014-02-01 04:48:00,31.6,23.6,30.26,NW,323,3.0,6.0,72,0.00,,---,0.00,VWS V14.01,2014-02-01 09:48:00,
2014-02-01 04:53:00,31.0,23.7,30.26,NE,43,3.0,6.0,74,0.00,,---,0.00,VWS V14.01,2014-02-01 09:53:00,
2014-02-01 04:58:00,30.7,23.7,30.26,NW,313,2.0,6.0,75,0.00,,---,0.00,VWS V14.01,2014-02-01 09:58:00,
2014-02-01 05:03:00,30.8,23.8,30.26,West,274,1.0,4.0,75,0.00,,---,0.00,VWS V14.01,2014-02-01 10:03:00,
2014-02-01 05:08:00,31.0,23.7,30.26,NNE,13,2.0,4.0,74,0.00,,---,0.00,VWS V14.01,2014-02-01 10:08:00,
2014-02-01 05:13:00,31.3,23.7,30.26,North,3,2.0,6.0,73,0.00,,---,0.00,VWS V14.01,2014-02-01 10:13:00,
2014-02-01 05:18:00,31.4,23.4,30.26,ENE,58,2.0,6.0,72,0.00,,---,0.00,VWS V14.01,2014-02-01 10:18:00,
2014-02-01 05:23:00,31.4,23.8,30.27,SSE,166,2.0,6.0,73,0.00,,---,0.00,VWS V14.01,2014-02-01 10:23:00,
2014-02-01 05:28:00,31.4,23.8,30.27,NW,309,1.0,7.0,73,0.00,,---,0.00,VWS V14.01,2014-02-01 10:28:00,
2014-02-01 05:33:00,31.4,24.1,30.28,NNE,24,2.0,4.0,74,0.00,,---,0.00,VWS V14.01,2014-02-01 10:33:00,
2014-02-01 05:38:00,31.4,24.1,30.28,NE,41,3.0,5.0,74,0.00,,---,0.00,VWS V14.01,2014-02-01 10:38:00,
2014-02-01 05:43:00,31.4,24.1,30.28,WNW,282,1.0,5.0,74,0.00,,---,0.00,VWS V14.01,2014-02-01 10:43:00,
2014-02-01 05:48:00,31.6,23.6,30.28,NE,43,2.0,5.0,72,0.00,,---,0.00,VWS V14.01,2014-02-01 10:48:00,
2014-02-01 05:53:00,31.7,23.7,30.28,NW,311,2.0,5.0,72,0.00,,---,0.00,VWS V14.01,2014-02-01 10:53:00,
2014-02-01 05:58:00,31.8,23.5,30.28,NNW,330,1.0,5.0,71,0.00,,---,0.00,VWS V14.01,2014-02-01 10:58:00,
2014-02-01 06:03:00,32.0,23.3,30.28,North,359,0.0,2.0,70,0.00,,---,0.00,VWS V14.01,2014-02-01 11:03:00,
2014-02-01 06:08:00,32.0,23.3,30.28,NE,43,0.0,2.0,70,0.00,,---,0.00,VWS V14.01,2014-02-01 11:08:00,
2014-02-01 06:13:00,31.9,23.2,30.28,North,355,0.0,3.0,70,0.00,,---,0.00,VWS V14.01,2014-02-01 11:13:00,
2014-02-01 06:18:00,31.9,22.9,30.29,North,6,0.0,3.0,69,0.00,,---,0.00,VWS V14.01,2014-02-01 11:18:00,
2014-02-01 06:23:00,31.8,22.8,30.28,NNE,15,0.0,3.0,69,0.00,,---,0.00,VWS V14.01,2014-02-01 11:23:00,
2014-02-01 06:28:00,31.5,23.2,30.29,NNE,15,0.0,3.0,71,0.00,,---,0.00,VWS V14.01,2014-02-01 11:28:00,
2014-02-01 06:33:00,31.4,24.1,30.29,North,10,0.0,0.0,74,0.00,,---,0.00,VWS V14.01,2014-02-01 11:33:00,
2014-02-01 06:38:00,31.3,24.0,30.29,NNE,22,0.0,2.0,74,0.00,,---,0.00,VWS V14.01,2014-02-01 11:38:00,
2014-02-01 06:43:00,31.1,23.8,30.30,NNE,19,0.0,2.0,74,0.00,,---,0.00,VWS V14.01,2014-02-01 11:43:00,
2014-02-01 06:48:00,31.0,23.7,30.30,North,359,0.0,2.0,74,0.00,,---,0.00,VWS V14.01,2014-02-01 11:48:00,
2014-02-01 06:53:00,30.8,23.8,30.30,NW,314,0.0,2.0,75,0.00,,---,0.00,VWS V14.01,2014-02-01 11:53:00,
2014-02-01 06:59:00,30.7,24.0,30.30,NW,307,0.0,2.0,76,0.00,,---,0.00,VWS V14.01,2014-02-01 11:59:00,
2014-02-01 07:04:00,30.5,24.2,30.30,NW,304,0.0,1.0,77,0.00,,---,0.00,VWS V14.01,2014-02-01 12:04:00,
2014-02-01 07:09:00,30.4,24.1,30.31,NNW,338,0.0,1.0,77,0.00,,---,0.00,VWS V14.01,2014-02-01 12:09:00,
2014-02-01 07:14:00,30.4,24.4,30.31,NNW,330,1.0,4.0,78,0.00,,---,0.00,VWS V14.01,2014-02-01 12:14:00,
2014-02-01 07:19:00,30.6,24.6,30.31,NW,318,0.0,4.0,78,0.00,,---,0.00,VWS V14.01,2014-02-01 12:19:00,
2014-02-01 07:24:00,30.7,24.7,30.32,NE,46,4.0,4.0,78,0.00,,---,0.00,VWS V14.01,2014-02-01 12:24:00,
2014-02-01 07:29:00,30.8,24.8,30.32,North,2,5.0,5.0,78,0.00,,---,0.00,VWS V14.01,2014-02-01 12:29:00,
2014-02-01 07:34:00,31.0,25.0,30.32,NW,320,3.0,4.0,78,0.00,,---,0.00,VWS V14.01,2014-02-01 12:34:00,
2014-02-01 07:39:00,31.2,24.8,30.32,NNW,332,2.0,4.0,77,0.00,,---,0.00,VWS V14.01,2014-02-01 12:39:00,
2014-02-01 07:44:00,31.6,24.9,30.33,NE,56,2.0,4.0,76,0.00,,---,0.00,VWS V14.01,2014-02-01 12:44:00,
2014-02-01 07:49:00,32.3,25.3,30.33,NNE,15,0.0,4.0,75,0.00,,---,0.00,VWS V14.01,2014-02-01 12:49:00,
2014-02-01 07:54:00,33.1,25.4,30.33,ENE,75,0.0,4.0,73,0.00,,---,0.00,VWS V14.01,2014-02-01 12:54:00,
2014-02-01 07:59:00,33.7,25.6,30.33,NNE,27,3.0,4.0,72,0.00,,---,0.00,VWS V14.01,2014-02-01 12:59:00,
2014-02-01 08:04:00,34.1,26.0,30.33,NNE,29,2.0,4.0,72,0.00,,---,0.00,VWS V14.01,2014-02-01 13:04:00,
2014-02-01 08:09:00,34.4,26.7,30.32,NE,41,3.0,4.0,73,0.00,,---,0.00,VWS V14.01,2014-02-01 13:09:00,
2014-02-01 08:14:00,34.8,27.4,30.32,NNE,29,3.0,4.0,74,0.00,,---,0.00,VWS V14.01,2014-02-01 13:14:00,
2014-02-01 08:19:00,34.8,27.7,30.32,ENE,61,2.0,4.0,75,0.00,,---,0.00,VWS V14.01,2014-02-01 13:19:00,
2014-02-01 08:24:00,34.9,28.4,30.33,ENE,65,3.0,4.0,77,0.00,,---,0.00,VWS V14.01,2014-02-01 13:24:00,
2014-02-01 08:29:00,35.1,28.6,30.33,NNE,19,2.0,5.0,77,0.00,,---,0.00,VWS V14.01,2014-02-01 13:29:00,
2014-02-01 08:34:00,35.3,29.1,30.33,NE,41,1.0,3.0,78,0.00,,---,0.00,VWS V14.01,2014-02-01 13:34:00,
2014-02-01 08:39:00,35.2,29.0,30.33,East,84,1.0,4.0,78,0.00,,---,0.00,VWS V14.01,2014-02-01 13:39:00,
2014-02-01 08:44:00,35.2,29.4,30.33,NE,42,4.0,5.0,79,0.00,,---,0.00,VWS V14.01,2014-02-01 13:44:00,
2014-02-01 08:49:00,35.5,30.0,30.33,ENE,57,1.0,5.0,80,0.00,,---,0.00,VWS V14.01,2014-02-01 13:49:00,
2014-02-01 08:54:00,35.9,30.6,30.33,NE,37,2.0,6.0,81,0.00,,---,0.00,VWS V14.01,2014-02-01 13:54:00,
2014-02-01 08:59:00,36.4,31.1,30.33,ENE,77,3.0,6.0,81,0.00,,---,0.00,VWS V14.01,2014-02-01 13:59:00,
2014-02-01 09:04:00,36.6,31.0,30.33,ENE,76,4.0,5.0,80,0.00,,---,0.00,VWS V14.01,2014-02-01 14:04:00,
2014-02-01 09:09:00,36.4,30.8,30.33,East,82,4.0,5.0,80,0.00,,---,0.00,VWS V14.01,2014-02-01 14:09:00,
2014-02-01 09:14:00,36.0,30.8,30.32,ENE,58,4.0,5.0,81,0.00,,---,0.00,VWS V14.01,2014-02-01 14:14:00,
2014-02-01 09:19:00,35.7,30.8,30.32,ENE,68,3.0,5.0,82,0.00,,---,0.00,VWS V14.01,2014-02-01 14:19:00,
2014-02-01 09:24:00,35.3,31.0,30.32,ENE,57,2.0,5.0,84,0.00,,---,0.00,VWS V14.01,2014-02-01 14:24:00,
2014-02-01 09:29:00,35.6,31.5,30.32,ENE,73,4.0,5.0,85,0.00,,---,0.00,VWS V14.01,2014-02-01 14:29:00,
2014-02-01 09:34:00,35.8,31.7,30.32,ENE,70,3.0,4.0,85,0.00,,---,0.00,VWS V14.01,2014-02-01 14:34:00,
2014-02-01 09:39:00,36.2,32.1,30.32,ENE,60,3.0,4.0,85,0.00,,---,0.00,VWS V14.01,2014-02-01 14:39:00,
2014-02-01 09:44:00,36.4,32.3,30.32,ENE,70,3.0,5.0,85,0.00,,---,0.00,VWS V14.01,2014-02-01 14:44:00,
2014-02-01 09:49:00,36.5,32.1,30.32,ENE,63,3.0,5.0,84,0.00,,---,0.00,VWS V14.01,2014-02-01 14:49:00,
2014-02-01 09:54:00,36.3,32.2,30.31,ENE,61,5.0,5.0,85,0.00,,---,0.00,VWS V14.01,2014-02-01 14:54:00,
2014-02-01 09:59:00,36.3,32.5,30.31,ENE,61,4.0,5.0,86,0.00,,---,0.00,VWS V14.01,2014-02-01 14:59:00,
2014-02-01 10:04:00,36.4,32.6,30.31,ENE,60,4.0,6.0,86,0.00,,---,0.00,VWS V14.01,2014-02-01 15:04:00,
2014-02-01 10:09:00,36.3,32.5,30.31,ENE,62,6.0,6.0,86,0.00,,---,0.00,VWS V14.01,2014-02-01 15:09:00,
2014-02-01 10:14:00,36.1,32.6,30.31,ENE,59,6.0,6.0,87,0.00,,---,0.00,VWS V14.01,2014-02-01 15:14:00,
2014-02-01 10:19:00,36.2,32.7,30.31,NE,49,4.0,6.0,87,0.00,,---,0.00,VWS V14.01,2014-02-01 15:19:00,
2014-02-01 10:24:00,36.4,32.9,30.31,NE,53,4.0,6.0,87,0.00,,---,0.00,VWS V14.01,2014-02-01 15:24:00,
2014-02-01 10:29:00,36.5,33.0,30.31,ENE,64,4.0,6.0,87,0.00,,---,0.00,VWS V14.01,2014-02-01 15:29:00,
2014-02-01 10:34:00,36.6,33.1,30.31,ENE,62,4.0,5.0,87,0.00,,---,0.00,VWS V14.01,2014-02-01 15:34:00,
2014-02-01 10:39:00,36.6,33.1,30.31,ENE,63,3.0,5.0,87,0.00,,---,0.00,VWS V14.01,2014-02-01 15:39:00,
2014-02-01 10:44:00,36.7,33.2,30.30,ENE,59,4.0,5.0,87,0.00,,---,0.00,VWS V14.01,2014-02-01 15:44:00,
2014-02-01 10:49:00,36.9,33.4,30.30,ENE,61,4.0,5.0,87,0.00,,---,0.00,VWS V14.01,2014-02-01 15:49:00,
2014-02-01 10:54:00,37.3,33.8,30.30,ENE,72,2.0,5.0,87,0.00,,---,0.00,VWS V14.01,2014-02-01 15:54:00,
2014-02-01 10:59:00,37.9,34.1,30.30,ENE,58,4.0,5.0,86,0.00,,---,0.00,VWS V14.01,2014-02-01 15:59:00,
2014-02-01 11:04:00,38.0,33.9,30.30,ENE,60,3.0,4.0,85,0.00,,---,0.00,VWS V14.01,2014-02-01 16:04:00,
2014-02-01 11:09:00,38.3,33.9,30.30,ENE,64,3.0,4.0,84,0.00,,---,0.00,VWS V14.01,2014-02-01 16:09:00,
2014-02-01 11:14:00,38.8,34.1,30.30,ENE,65,3.0,4.0,83,0.00,,---,0.00,VWS V14.01,2014-02-01 16:14:00,
2014-02-01 11:19:00,39.1,34.1,30.30,ENE,58,2.0,5.0,82,0.00,,---,0.00,VWS V14.01,2014-02-01 16:19:00,
2014-02-01 11:24:00,39.2,33.9,30.30,NNE,31,3.0,5.0,81,0.00,,---,0.00,VWS V14.01,2014-02-01 16:24:00,
2014-02-01 11:29:00,39.0,34.0,30.29,ENE,62,4.0,5.0,82,0.00,,---,0.00,VWS V14.01,2014-02-01 16:29:00,
2014-02-01 11:34:00,39.0,34.0,30.29,ENE,63,2.0,4.0,82,0.00,,---,0.00,VWS V14.01,2014-02-01 16:34:00,
2014-02-01 11:39:00,39.3,34.0,30.28,NE,51,2.0,4.0,81,0.00,,---,0.00,VWS V14.01,2014-02-01 16:39:00,
2014-02-01 11:44:00,39.6,34.3,30.28,ENE,68,4.0,5.0,81,0.00,,---,0.00,VWS V14.01,2014-02-01 16:44:00,
2014-02-01 11:49:00,40.0,34.7,30.28,ENE,77,3.0,5.0,81,0.00,,---,0.00,VWS V14.01,2014-02-01 16:49:00,
2014-02-01 11:54:00,40.3,34.6,30.28,ENE,70,2.0,5.0,80,0.00,,---,0.00,VWS V14.01,2014-02-01 16:54:00,
2014-02-01 11:59:00,40.4,34.4,30.28,ENE,76,2.0,5.0,79,0.00,,---,0.00,VWS V14.01,2014-02-01 16:59:00,
2014-02-01 12:04:00,40.7,34.7,30.28,NE,49,4.0,4.0,79,0.00,,---,0.00,VWS V14.01,2014-02-01 17:04:00,
2014-02-01 12:09:00,40.9,34.9,30.27,NE,39,4.0,4.0,79,0.00,,---,0.00,VWS V14.01,2014-02-01 17:09:00,
2014-02-01 12:14:00,41.1,35.1,30.27,NE,44,3.0,4.0,79,0.00,,---,0.00,VWS V14.01,2014-02-01 17:14:00,
2014-02-01 12:19:00,41.2,35.2,30.26,ENE,77,3.0,5.0,79,0.00,,---,0.00,VWS V14.01,2014-02-01 17:19:00,
2014-02-01 12:24:00,41.5,35.5,30.27,NE,38,2.0,5.0,79,0.00,,---,0.00,VWS V14.01,2014-02-01 17:24:00,
2014-02-01 12:29:00,41.5,35.5,30.26,East,87,2.0,5.0,79,0.00,,---,0.00,VWS V14.01,2014-02-01 17:29:00,
2014-02-01 12:34:00,41.4,35.7,30.26,ENE,60,3.0,5.0,80,0.00,,---,0.00,VWS V14.01,2014-02-01 17:34:00,
2014-02-01 12:39:00,41.3,35.6,30.26,East,96,3.0,5.0,80,0.00,,---,0.00,VWS V14.01,2014-02-01 17:39:00,
2014-02-01 12:44:00,41.0,35.3,30.26,ENE,57,4.0,5.0,80,0.00,,---,0.00,VWS V14.01,2014-02-01 17:44:00,
2014-02-01 12:49:00,40.7,35.3,30.26,NE,53,4.0,5.0,81,0.00,,---,0.00,VWS V14.01,2014-02-01 17:49:00,
2014-02-01 12:54:00,41.0,35.9,30.26,East,86,4.0,5.0,82,0.00,,---,0.00,VWS V14.01,2014-02-01 17:54:00,
2014-02-01 12:59:00,41.0,35.6,30.25,ENE,78,4.0,5.0,81,0.00,,---,0.00,VWS V14.01,2014-02-01 17:59:00,
2014-02-01 13:04:00,40.9,35.8,30.25,East,83,3.0,5.0,82,0.00,,---,0.00,VWS V14.01,2014-02-01 18:04:00,
2014-02-01 13:09:00,41.1,36.0,30.25,NE,34,2.0,5.0,82,0.00,,---,0.00,VWS V14.01,2014-02-01 18:09:00,
2014-02-01 13:14:00,40.9,35.8,30.25,ENE,63,1.0,5.0,82,0.00,,---,0.00,VWS V14.01,2014-02-01 18:14:00,
2014-02-01 13:19:00,40.9,36.1,30.25,East,90,4.0,5.0,83,0.00,,---,0.00,VWS V14.01,2014-02-01 18:19:00,
2014-02-01 13:24:00,41.1,36.3,30.24,NE,39,4.0,5.0,83,0.00,,---,0.00,VWS V14.01,2014-02-01 18:24:00,
2014-02-01 13:29:00,41.2,36.1,30.24,NNE,25,4.0,6.0,82,0.00,,---,0.00,VWS V14.01,2014-02-01 18:29:00,
2014-02-01 13:35:00,40.9,35.8,30.24,ENE,57,1.0,6.0,82,0.00,,---,0.00,VWS V14.01,2014-02-01 18:35:00,
2014-02-01 13:40:00,41.2,36.4,30.24,ENE,72,2.0,6.0,83,0.00,,---,0.00,VWS V14.01,2014-02-01 18:40:00,
2014-02-01 13:45:00,41.1,36.0,30.24,NNE,20,4.0,6.0,82,0.00,,---,0.00,VWS V14.01,2014-02-01 18:45:00,
2014-02-01 13:50:00,40.8,36.0,30.23,NE,37,6.0,6.0,83,0.00,,---,0.00,VWS V14.01,2014-02-01 18:50:00,
2014-02-01 13:55:00,40.9,36.5,30.23,NE,49,1.0,7.0,84,0.00,,---,0.00,VWS V14.01,2014-02-01 18:55:00,
2014-02-01 14:00:00,40.7,36.0,30.23,SE,136,1.0,7.0,83,0.00,,---,0.00,VWS V14.01,2014-02-01 19:00:00,
2014-02-01 14:05:00,40.6,36.2,30.22,East,87,4.0,5.0,84,0.00,,---,0.00,VWS V14.01,2014-02-01 19:05:00,
2014-02-01 14:10:00,40.2,35.8,30.22,NE,46,3.0,5.0,84,0.00,,---,0.00,VWS V14.01,2014-02-01 19:10:00,
2014-02-01 14:15:00,39.8,35.7,30.22,ENE,70,3.0,6.0,85,0.00,,---,0.00,VWS V14.01,2014-02-01 19:15:00,
2014-02-01 14:20:00,39.5,35.7,30.21,East,101,3.0,6.0,86,0.00,,---,0.00,VWS V14.01,2014-02-01 19:20:00,
2014-02-01 14:25:00,39.0,35.5,30.21,NE,55,4.0,6.0,87,0.00,,---,0.00,VWS V14.01,2014-02-01 19:25:00,
2014-02-01 14:30:00,38.9,35.4,30.20,ENE,70,6.0,7.0,87,0.00,,---,0.00,VWS V14.01,2014-02-01 19:30:00,
2014-02-01 14:35:00,39.2,36.0,30.20,NNE,25,3.0,7.0,88,0.00,,---,0.00,VWS V14.01,2014-02-01 19:35:00,
2014-02-01 14:40:00,39.4,35.9,30.20,NNE,27,3.0,7.0,87,0.00,,---,0.00,VWS V14.01,2014-02-01 19:40:00,
2014-02-01 14:45:00,39.2,35.7,30.20,East,80,2.0,7.0,87,0.00,,---,0.00,VWS V14.01,2014-02-01 19:45:00,
2014-02-01 14:50:00,39.1,35.6,30.20,ENE,63,5.0,7.0,87,0.00,,---,0.00,VWS V14.01,2014-02-01 19:50:00,
2014-02-01 14:55:00,38.8,35.3,30.20,ENE,70,3.0,7.0,87,0.00,,---,0.00,VWS V14.01,2014-02-01 19:55:00,
2014-02-01 15:00:00,38.6,35.4,30.20,ENE,57,4.0,7.0,88,0.00,,---,0.00,VWS V14.01,2014-02-01 20:00:00,
2014-02-01 15:05:00,38.3,35.3,30.20,ENE,70,3.0,6.0,89,0.00,,---,0.00,VWS V14.01,2014-02-01 20:05:00,
2014-02-01 15:10:00,38.2,35.2,30.19,NE,54,4.0,6.0,89,0.00,,---,0.00,VWS V14.01,2014-02-01 20:10:00,
2014-02-01 15:15:00,38.1,35.2,30.19,East,86,5.0,6.0,89,0.00,,---,0.00,VWS V14.01,2014-02-01 20:15:00,
2014-02-01 15:20:00,37.9,35.2,30.19,ESE,113,1.0,6.0,90,0.00,,---,0.00,VWS V14.01,2014-02-01 20:20:00,
2014-02-01 15:25:00,38.0,35.3,30.19,East,99,2.0,6.0,90,0.00,,---,0.00,VWS V14.01,2014-02-01 20:25:00,
2014-02-01 15:30:00,38.0,35.3,30.19,East,83,2.0,8.0,90,0.00,,---,0.00,VWS V14.01,2014-02-01 20:30:00,
2014-02-01 15:35:00,37.8,35.1,30.19,NE,44,4.0,5.0,90,0.00,,---,0.00,VWS V14.01,2014-02-01 20:35:00,
2014-02-01 15:40:00,37.7,35.0,30.18,ESE,103,3.0,6.0,90,0.00,,---,0.00,VWS V14.01,2014-02-01 20:40:00,
2014-02-01 15:45:00,37.7,35.3,30.19,East,79,3.0,6.0,91,0.00,,---,0.00,VWS V14.01,2014-02-01 20:45:00,
2014-02-01 15:50:00,37.9,35.5,30.19,NE,56,5.0,6.0,91,0.00,,---,0.00,VWS V14.01,2014-02-01 20:50:00,
2014-02-01 15:55:00,37.8,35.1,30.18,NE,52,4.0,7.0,90,0.00,,---,0.00,VWS V14.01,2014-02-01 20:55:00,
2014-02-01 16:00:00,37.5,34.8,30.18,ENE,74,5.0,7.0,90,0.00,,---,0.00,VWS V14.01,2014-02-01 21:00:00,
2014-02-01 16:05:00,37.3,34.9,30.18,ENE,66,3.0,6.0,91,0.00,,---,0.00,VWS V14.01,2014-02-01 21:05:00,
2014-02-01 16:10:00,37.1,34.7,30.18,ENE,63,3.0,6.0,91,0.00,,---,0.00,VWS V14.01,2014-02-01 21:10:00,
2014-02-01 16:15:00,37.2,35.1,30.18,ENE,64,4.0,6.0,92,0.00,,---,0.00,VWS V14.01,2014-02-01 21:15:00,
2014-02-01 16:20:00,37.1,35.0,30.18,NE,55,2.0,6.0,92,0.00,,---,0.00,VWS V14.01,2014-02-01 21:20:00,
2014-02-01 16:25:00,37.2,35.1,30.18,ENE,74,3.0,6.0,92,0.00,,---,0.00,VWS V14.01,2014-02-01 21:25:00,
2014-02-01 16:30:00,37.3,35.2,30.18,ENE,70,5.0,6.0,92,0.00,,---,0.00,VWS V14.01,2014-02-01 21:30:00,
2014-02-01 16:35:00,37.3,35.2,30.17,ENE,65,5.0,6.0,92,0.00,,---,0.00,VWS V14.01,2014-02-01 21:35:00,
2014-02-01 16:40:00,37.0,34.9,30.17,ENE,57,5.0,6.0,92,0.00,,---,0.00,VWS V14.01,2014-02-01 21:40:00,
2014-02-01 16:45:00,36.8,35.0,30.17,ENE,60,4.0,6.0,93,0.00,,---,0.00,VWS V14.01,2014-02-01 21:45:00,
2014-02-01 16:50:00,36.9,35.1,30.17,ENE,66,3.0,6.0,93,0.00,,---,0.00,VWS V14.01,2014-02-01 21:50:00,
2014-02-01 16:55:00,37.0,35.2,30.16,ENE,60,4.0,6.0,93,0.00,,---,0.00,VWS V14.01,2014-02-01 21:55:00,
2014-02-01 17:00:00,36.9,35.1,30.16,ENE,63,4.0,6.0,93,0.00,,---,0.00,VWS V14.01,2014-02-01 22:00:00,
2014-02-01 17:05:00,36.8,35.0,30.16,ENE,58,3.0,4.0,93,0.00,,---,0.00,VWS V14.01,2014-02-01 22:05:00,
2014-02-01 17:10:00,37.0,35.2,30.16,ENE,62,3.0,4.0,93,0.00,,---,0.00,VWS V14.01,2014-02-01 22:10:00,
2014-02-01 17:15:00,37.2,35.6,30.16,ENE,68,3.0,4.0,94,0.00,,---,0.00,VWS V14.01,2014-02-01 22:15:00,
2014-02-01 17:20:00,37.1,35.3,30.16,East,79,2.0,4.0,93,0.00,,---,0.00,VWS V14.01,2014-02-01 22:20:00,
2014-02-01 17:25:00,37.2,35.4,30.16,ENE,64,3.0,4.0,93,0.00,,---,0.00,VWS V14.01,2014-02-01 22:25:00,
2014-02-01 17:30:00,37.3,35.7,30.16,ENE,63,2.0,4.0,94,0.00,,---,0.00,VWS V14.01,2014-02-01 22:30:00,
2014-02-01 17:35:00,37.4,35.8,30.16,ENE,60,2.0,3.0,94,0.00,,---,0.00,VWS V14.01,2014-02-01 22:35:00,
2014-02-01 17:40:00,37.6,36.0,30.16,ENE,68,2.0,3.0,94,0.00,,---,0.00,VWS V14.01,2014-02-01 22:40:00,
2014-02-01 17:45:00,37.7,36.1,30.16,ENE,72,1.0,3.0,94,0.00,,---,0.00,VWS V14.01,2014-02-01 22:45:00,
2014-02-01 17:50:00,38.1,36.5,30.16,ENE,67,1.0,3.0,94,0.00,,---,0.00,VWS V14.01,2014-02-01 22:50:00,
2014-02-01 17:55:00,38.3,36.7,30.16,NE,39,3.0,4.0,94,0.00,,---,0.00,VWS V14.01,2014-02-01 22:55:00,
2014-02-01 18:00:00,38.6,37.0,30.16,NNE,32,2.0,4.0,94,0.00,,---,0.00,VWS V14.01,2014-02-01 23:00:00,
2014-02-01 18:05:00,38.8,37.0,30.16,NNE,32,2.0,3.0,93,0.00,,---,0.00,VWS V14.01,2014-02-01 23:05:00,
2014-02-01 18:10:00,38.5,36.4,30.16,North,2,1.0,3.0,92,0.00,,---,0.00,VWS V14.01,2014-02-01 23:10:00,
2014-02-01 18:15:00,38.4,36.6,30.16,NNW,338,1.0,3.0,93,0.00,,---,0.00,VWS V14.01,2014-02-01 23:15:00,
2014-02-01 18:20:00,38.5,36.7,30.15,NE,42,1.0,3.0,93,0.00,,---,0.00,VWS V14.01,2014-02-01 23:20:00,
2014-02-01 18:25:00,38.7,36.8,30.15,NE,41,3.0,3.0,93,0.00,,---,0.00,VWS V14.01,2014-02-01 23:25:00,
2014-02-01 18:30:00,38.6,36.8,30.15,NNE,25,3.0,4.0,93,0.00,,---,0.00,VWS V14.01,2014-02-01 23:30:00,
2014-02-01 18:35:00,38.4,36.6,30.15,NNE,23,4.0,4.0,93,0.00,,---,0.00,VWS V14.01,2014-02-01 23:35:00,
2014-02-01 18:41:00,38.3,36.5,30.15,NE,53,2.0,4.0,93,0.00,,---,0.00,VWS V14.01,2014-02-01 23:41:00,
2014-02-01 18:46:00,38.1,36.3,30.15,ENE,60,3.0,4.0,93,0.00,,---,0.00,VWS V14.01,2014-02-01 23:46:00,
2014-02-01 18:51:00,38.1,36.3,30.14,NE,46,2.0,4.0,93,0.00,,---,0.00,VWS V14.01,2014-02-01 23:51:00,
2014-02-01 18:56:00,37.6,35.8,30.14,NE,45,3.0,4.0,93,0.00,,---,0.00,VWS V14.01,2014-02-01 23:56:00,
2014-02-01 19:01:00,37.5,35.9,30.14,ENE,57,1.0,5.0,94,0.00,,---,0.00,VWS V14.01,2014-02-02 00:01:00,
2014-02-01 19:06:00,37.3,35.5,30.14,NE,34,4.0,5.0,93,0.00,,---,0.00,VWS V14.01,2014-02-02 00:06:00,
2014-02-01 19:11:00,37.6,36.3,30.14,NE,36,4.0,5.0,95,0.00,,---,0.00,VWS V14.01,2014-02-02 00:11:00,
2014-02-01 19:16:00,37.8,36.5,30.14,NNE,31,4.0,5.0,95,0.00,,---,0.00,VWS V14.01,2014-02-02 00:16:00,
2014-02-01 19:21:00,37.9,36.3,30.14,NNE,28,3.0,5.0,94,0.00,,---,0.00,VWS V14.01,2014-02-02 00:21:00,
2014-02-01 19:26:00,38.1,36.8,30.14,NNE,33,1.0,5.0,95,0.00,,---,0.00,VWS V14.01,2014-02-02 00:26:00,
2014-02-01 19:31:00,38.1,36.8,30.13,NE,39,1.0,1.0,95,0.00,,---,0.00,VWS V14.01,2014-02-02 00:31:00,
2014-02-01 19:36:00,38.1,36.8,30.13,NE,36,2.0,4.0,95,0.00,,---,0.00,VWS V14.01,2014-02-02 00:36:00,
2014-02-01 19:41:00,38.0,36.7,30.13,ENE,63,1.0,4.0,95,0.00,,---,0.00,VWS V14.01,2014-02-02 00:41:00,
2014-02-01 19:46:00,37.7,36.1,30.12,ENE,70,1.0,4.0,94,0.00,,---,0.00,VWS V14.01,2014-02-02 00:46:00,
2014-02-01 19:51:00,37.4,36.1,30.12,ENE,73,1.0,4.0,95,0.00,,---,0.00,VWS V14.01,2014-02-02 00:51:00,
2014-02-01 19:56:00,37.4,36.1,30.12,East,87,2.0,4.0,95,0.00,,---,0.00,VWS V14.01,2014-02-02 00:56:00,
2014-02-01 20:01:00,37.3,36.0,30.12,ENE,61,2.0,2.0,95,0.00,,---,0.00,VWS V14.01,2014-02-02 01:01:00,
2014-02-01 20:06:00,37.7,36.7,30.12,ENE,59,3.0,3.0,96,0.00,,---,0.00,VWS V14.01,2014-02-02 01:06:00,
2014-02-01 20:11:00,37.8,36.8,30.11,ENE,61,3.0,4.0,96,0.00,,---,0.00,VWS V14.01,2014-02-02 01:11:00,
2014-02-01 20:16:00,37.7,36.7,30.11,ENE,69,2.0,4.0,96,0.00,,---,0.00,VWS V14.01,2014-02-02 01:16:00,
2014-02-01 20:21:00,38.2,37.2,30.11,ENE,63,4.0,4.0,96,0.00,,---,0.00,VWS V14.01,2014-02-02 01:21:00,
2014-02-01 20:26:00,38.4,37.4,30.10,ENE,60,3.0,4.0,96,0.00,,---,0.00,VWS V14.01,2014-02-02 01:26:00,
2014-02-01 20:31:00,38.4,37.4,30.09,ENE,57,4.0,4.0,96,0.00,,---,0.00,VWS V14.01,2014-02-02 01:31:00,
2014-02-01 20:36:00,38.5,37.5,30.09,ENE,63,4.0,4.0,96,0.00,,---,0.00,VWS V14.01,2014-02-02 01:36:00,
2014-02-01 20:41:00,38.3,37.3,30.09,ENE,63,4.0,5.0,96,0.00,,---,0.00,VWS V14.01,2014-02-02 01:41:00,
2014-02-01 20:46:00,38.8,38.0,30.08,NE,54,3.0,5.0,97,0.00,,---,0.00,VWS V14.01,2014-02-02 01:46:00,
2014-02-01 20:51:00,38.7,37.7,30.08,ENE,68,3.0,5.0,96,0.00,,---,0.00,VWS V14.01,2014-02-02 01:51:00,
2014-02-01 20:56:00,38.7,37.7,30.08,North,11,2.0,5.0,96,0.00,,---,0.00,VWS V14.01,2014-02-02 01:56:00,
2014-02-01 21:01:00,38.1,37.1,30.08,East,101,0.0,1.0,96,0.00,,---,0.00,VWS V14.01,2014-02-02 02:01:00,
2014-02-01 21:06:00,37.7,36.7,30.08,SE,145,4.0,5.0,96,0.00,,---,0.00,VWS V14.01,2014-02-02 02:06:00,
2014-02-01 21:11:00,37.7,36.7,30.07,SE,129,4.0,5.0,96,0.00,,---,0.00,VWS V14.01,2014-02-02 02:11:00,
2014-02-01 21:16:00,37.7,36.7,30.07,ESE,122,5.0,5.0,96,0.00,,---,0.00,VWS V14.01,2014-02-02 02:16:00,
2014-02-01 21:21:00,37.9,37.1,30.07,ESE,108,5.0,6.0,97,0.00,,---,0.00,VWS V14.01,2014-02-02 02:21:00,
2014-02-01 21:26:00,37.7,36.9,30.06,SE,135,5.0,6.0,97,0.00,,---,0.00,VWS V14.01,2014-02-02 02:26:00,
2014-02-01 21:31:00,37.4,36.4,30.06,South,191,1.0,3.0,96,0.00,,---,0.00,VWS V14.01,2014-02-02 02:31:00,
2014-02-01 21:36:00,37.3,36.5,30.06,SE,141,3.0,3.0,97,0.00,,---,0.00,VWS V14.01,2014-02-02 02:36:00,
2014-02-01 21:41:00,37.8,37.0,30.06,SSE,150,2.0,4.0,97,0.00,,---,0.00,VWS V14.01,2014-02-02 02:41:00,
2014-02-01 21:46:00,37.9,37.1,30.05,ESE,113,2.0,5.0,97,0.00,,---,0.00,VWS V14.01,2014-02-02 02:46:00,
2014-02-01 21:51:00,37.9,37.1,30.05,SSW,193,0.0,5.0,97,0.00,,---,0.00,VWS V14.01,2014-02-02 02:51:00,
2014-02-01 21:56:00,37.9,37.1,30.05,SSE,152,0.0,5.0,97,0.00,,---,0.00,VWS V14.01,2014-02-02 02:56:00,
2014-02-01 22:01:00,37.7,36.9,30.05,SSW,204,0.0,2.0,97,0.00,,---,0.00,VWS V14.01,2014-02-02 03:01:00,
2014-02-01 22:06:00,37.9,37.1,30.05,ESE,119,2.0,3.0,97,0.00,,---,0.00,VWS V14.01,2014-02-02 03:06:00,
2014-02-01 22:11:00,38.0,37.2,30.05,SSW,210,1.0,3.0,97,0.00,,---,0.00,VWS V14.01,2014-02-02 03:11:00,
2014-02-01 22:16:00,38.4,37.6,30.05,SSE,148,3.0,6.0,97,0.00,,---,0.00,VWS V14.01,2014-02-02 03:16:00,
2014-02-01 22:21:00,38.6,38.1,30.05,South,175,3.0,6.0,98,0.00,,---,0.00,VWS V14.01,2014-02-02 03:21:00,
2014-02-01 22:27:00,38.9,38.4,30.04,WNW,289,2.0,6.0,98,0.00,,---,0.00,VWS V14.01,2014-02-02 03:27:00,
2014-02-01 22:31:00,38.9,38.4,30.04,SW,217,2.0,3.0,98,0.00,,---,0.00,VWS V14.01,2014-02-02 03:31:00,
2014-02-01 22:37:00,38.8,38.0,30.04,SSW,203,0.0,4.0,97,0.00,,---,0.00,VWS V14.01,2014-02-02 03:37:00,
2014-02-01 22:42:00,38.7,37.9,30.04,ENE,58,7.0,7.0,97,0.00,,---,0.00,VWS V14.01,2014-02-02 03:42:00,
2014-02-01 22:47:00,38.8,38.0,30.03,SSE,148,2.0,7.0,97,0.00,,---,0.00,VWS V14.01,2014-02-02 03:47:00,
2014-02-01 22:52:00,38.8,38.0,30.03,SSE,160,2.0,7.0,97,0.00,,---,0.00,VWS V14.01,2014-02-02 03:52:00,
2014-02-01 22:57:00,38.7,37.9,30.03,ESE,102,4.0,7.0,97,0.00,,---,0.00,VWS V14.01,2014-02-02 03:57:00,
2014-02-01 23:02:00,38.6,37.8,30.03,SSW,205,3.0,6.0,97,0.00,,---,0.00,VWS V14.01,2014-02-02 04:02:00,
2014-02-01 23:07:00,38.5,37.7,30.03,SSW,210,3.0,6.0,97,0.00,,---,0.00,VWS V14.01,2014-02-02 04:07:00,
2014-02-01 23:12:00,38.9,38.4,30.02,WSW,243,5.0,6.0,98,0.00,,---,0.00,VWS V14.01,2014-02-02 04:12:00,
2014-02-01 23:17:00,39.3,38.8,30.02,NNW,332,1.0,8.0,98,0.00,,---,0.00,VWS V14.01,2014-02-02 04:17:00,
2014-02-01 23:22:00,39.6,39.1,30.02,WSW,248,1.0,9.0,98,0.00,,---,0.00,VWS V14.01,2014-02-02 04:22:00,
2014-02-01 23:27:00,40.4,39.9,30.02,SW,217,2.0,9.0,98,0.00,,---,0.00,VWS V14.01,2014-02-02 04:27:00,
2014-02-01 23:32:00,41.3,40.8,30.02,ENE,78,4.0,8.0,98,0.00,,---,0.00,VWS V14.01,2014-02-02 04:32:00,
2014-02-01 23:37:00,42.3,42.0,30.02,SW,227,4.0,9.0,99,0.00,,---,0.00,VWS V14.01,2014-02-02 04:37:00,
2014-02-01 23:42:00,42.7,42.4,30.02,SW,236,8.0,9.0,99,0.00,,---,0.00,VWS V14.01,2014-02-02 04:42:00,
2014-02-01 23:47:00,43.1,42.8,30.02,SSW,212,2.0,9.0,99,0.00,,---,0.00,VWS V14.01,2014-02-02 04:47:00,
2014-02-01 23:52:00,43.0,42.7,30.01,SSW,207,2.0,9.0,99,0.00,,---,0.00,VWS V14.01,2014-02-02 04:52:00,
2014-02-01 23:57:00,43.3,43.0,30.01,WSW,242,3.0,9.0,99,0.00,,---,0.00,VWS V14.01,2014-02-02 04:57:00,